Find Starlink 35033

NORAD ID: 65468 Int'l Des: 2025-195 Owner: SPXS Country: US Constellation: starlink operational
LEOCIRCULAR

現在のビュー

3D地球を読み込み中...

About Starlink 35033

Starlink 35033 (NORAD 65468) is a starlink constellation satellite (v2 mini) launched Sep 3, 2025 by SPXS of US. It operates in LEO, CIRCULAR orbit with a mass of 575.00 kg.

次回通過

Passes for default location (London). Set your location on the main map for personalized predictions.

高度履歴

Loading altitude history...

軌道要素

1 65468U 25195L 26263.93974875 .00013766 00000-0 45442-3 0 9997
2 65468 53.1587 69.3931 0001015 101.0160 259.0955 15.31709636 59917
Epoch: Sep 20, 2026 • Age: 10 hours

現在のステータス

高度 477.1 km
遠地点 / 近地点 N/A
速度 7.63 km/s
衛星直下点 -22.19°S, 132.03°E
打ち上げ日 Sep 3, 2025
運用期間 1 year
タイプ internet

技術仕様

分類 Payload
質量 575.00 kg
乾燥質量 530.00 kg
長さ 0.30 m
スパン 29.00 m
形状 ? Box + pan
製造者 SPXS
バスタイプ Starlink V2MO
フェーズステータス In Orbit
所有者/国 SPXS/US

Most Searched